TimeCDT,TemperatureF,Dew PointF,Humidity,Sea Level PressureIn,VisibilityMPH,Wind Direction,Wind SpeedMPH,Gust SpeedMPH,PrecipitationIn,Events,Conditions,WindDirDegrees,DateUTC
12:52 AM,73.0,64.9,76,29.94,10.0,ESE,6.9,-,N/A,,Clear,120,2013-06-14 05:52:00
1:52 AM,71.1,64.9,81,29.94,10.0,East,4.6,-,N/A,,Clear,100,2013-06-14 06:52:00
2:52 AM,71.1,64.9,81,29.92,10.0,SE,3.5,-,N/A,,Clear,140,2013-06-14 07:52:00
3:52 AM,70.0,64.9,84,29.90,10.0,SSE,5.8,-,N/A,,Clear,150,2013-06-14 08:52:00
4:52 AM,69.1,64.9,87,29.89,10.0,SSE,6.9,-,N/A,,Clear,160,2013-06-14 09:52:00
5:52 AM,68.0,64.0,87,29.90,10.0,SSE,5.8,-,N/A,,Clear,150,2013-06-14 10:52:00
6:52 AM,69.1,64.9,87,29.90,10.0,SE,6.9,-,N/A,,Clear,140,2013-06-14 11:52:00
7:52 AM,73.0,66.0,79,29.90,10.0,South,10.4,-,N/A,,Clear,170,2013-06-14 12:52:00
8:52 AM,79.0,69.1,72,29.90,10.0,South,10.4,-,N/A,,Clear,170,2013-06-14 13:52:00
9:52 AM,84.0,69.1,61,29.89,10.0,SSW,15.0,-,N/A,,Clear,200,2013-06-14 14:52:00
10:52 AM,88.0,69.1,53,29.87,10.0,SSW,15.0,-,N/A,,Clear,210,2013-06-14 15:52:00
11:52 AM,93.0,68.0,44,29.86,10.0,SSW,15.0,23.0,N/A,,Clear,210,2013-06-14 16:52:00
12:52 PM,96.1,64.0,35,29.83,10.0,SSW,19.6,25.3,N/A,,Clear,200,2013-06-14 17:52:00
1:52 PM,98.1,61.0,29,29.82,10.0,SSW,19.6,28.8,N/A,,Clear,200,2013-06-14 18:52:00
2:52 PM,99.0,60.1,28,29.81,10.0,SSW,20.7,28.8,N/A,,Clear,210,2013-06-14 19:52:00
3:52 PM,99.0,57.9,25,29.79,10.0,South,23.0,32.2,N/A,,Clear,190,2013-06-14 20:52:00
4:52 PM,99.0,55.0,23,29.77,10.0,SSW,27.6,33.4,N/A,,Clear,210,2013-06-14 21:52:00
5:52 PM,96.1,55.9,26,29.76,10.0,South,24.2,35.7,N/A,,Clear,190,2013-06-14 22:52:00
6:52 PM,95.0,57.0,28,29.78,10.0,South,20.7,27.6,N/A,,Clear,190,2013-06-14 23:52:00
7:52 PM,91.0,57.9,33,29.80,10.0,SSW,18.4,-,N/A,,Clear,200,2013-06-15 00:52:00
8:52 PM,86.0,59.0,40,29.81,10.0,SSW,10.4,-,N/A,,Clear,200,2013-06-15 01:52:00
9:52 PM,81.0,60.1,49,29.83,10.0,South,8.1,-,N/A,,Clear,190,2013-06-15 02:52:00
10:52 PM,77.0,62.1,60,29.85,10.0,SSE,5.8,-,N/A,,Clear,160,2013-06-15 03:52:00
11:52 PM,75.0,62.1,64,29.86,10.0,SSE,5.8,-,N/A,,Clear,160,2013-06-15 04:52:00